[[{"header":{"parameterUnit":"m.s-1","parameterCategory":1,"la1":30.2991,"la2":30.254,"lo1":-89.0895,"lo2":-89.0444,"dy":0.0017,"dx":0.0017,"nx":28,"ny":28,"refTime":"2024-02-08T09:00:00:Z","depth":0,"parameterNumber":2,"parameterNumberName":"U-component_of_WINDS"},"data":[0,0,0,0,0,0,0,0,0,0,0,0,0,0,0,0,0,0,0,0,0,0,0,0,0,0,0,0,0,0,0,0,0,0,0,0,0,0,0,0,0,0,0,0,0,0,0,0,0,0,0,0,0,0,0,0,0,0,-3.8107,-3.8106,0,-3.7987,-3.7985,-3.7984,-3.7836,-3.7833,-3.7831,-3.7829,-3.7703,-3.7702,-3.7701,0,0,0,0,0,0,0,0,0,0,0,0,0,-3.821,-3.8209,-3.8108,-3.8106,-3.8105,-3.7987,-3.7985,-3.7984,-3.7836,-3.7833,-3.783,-3.7828,-3.7704,-3.7702,-3.7701,0,0,0,0,0,0,0,0,0,0,0,0,0,-3.8135,-3.8209,-3.8108,-3.8017,-3.8007,-3.7987,-3.7985,-3.7983,-3.7837,-3.7833,-3.783,-3.7826,-3.7704,-3.7702,-3.7701,-3.776,0,0,-3.7695,-3.7694,0,0,0,0,0,0,0,0,-3.8139,-3.8131,-3.8032,-3.8023,-3.8013,-3.7923,-3.7975,-3.7908,-3.7837,-3.7901,-3.7829,-3.7825,-3.7779,-3.7771,-3.7756,-3.7754,-3.7748,-3.7695,-3.7694,-3.7693,-3.7693,0,0,0,0,0,0,0,-3.8145,-3.8136,-3.806,-3.803,-3.8019,-3.7982,-3.7967,-3.7962,-3.7861,-3.7896,-3.7884,-3.7872,-3.7773,-3.7758,-3.7752,-3.7746,-3.7695,-3.7694,-3.7692,-3.7692,-3.7786,-3.7789,0,0,0,0,0,0,-3.8164,-3.8141,-3.8063,-3.8056,-3.8069,-3.7983,-3.7966,-3.7955,-3.7861,-3.7843,-3.7875,-3.7866,-3.7762,-3.7754,-3.7747,-3.7808,-3.7693,-3.7692,-3.7691,-3.7782,-3.7787,-3.7791,0,0,0,0,0,0,-3.8167,-3.8158,-3.8068,-3.8095,-3.8081,-3.7985,-3.7973,-3.7954,-3.7939,-3.7846,-3.7827,-3.7878,-3.7759,-3.7749,-3.7757,-3.7801,-3.7691,-3.7689,-3.7778,-3.7784,-3.7789,-3.7932,0,0,0,0,0,0,-3.817,-3.816,-3.8182,-3.8097,-3.808,-3.8082,-3.7976,-3.7955,-3.7936,-3.7923,-3.7843,-3.7827,-3.7756,-3.7761,-3.7756,-3.7797,-3.7688,-3.7774,-3.7781,-3.7787,-3.7923,-3.7942,-3.7958,0,0,0,0,0,-3.8174,-3.8227,-3.8183,-3.8175,-3.8105,-3.8084,-3.8075,-3.7992,-3.7941,-3.7961,-3.7901,-3.7829,-3.7799,-3.7763,-3.7756,-3.7797,-3.7771,-3.7779,-3.7787,-3.7915,-3.7938,-3.7957,0,0,0,0,0,0,-3.8317,-3.8214,-3.8165,-3.8191,-3.8148,-3.8059,-3.8082,-3.802,-3.7989,-3.7978,-3.7877,-3.786,-3.788,-3.784,-3.7802,-3.7849,-3.7774,-3.7781,-3.7874,-3.7895,-3.7912,-3.792,-3.7686,0,0,0,0,0,-3.8353,-3.8345,-3.8254,-3.8287,-3.8268,-3.818,-3.8167,-3.8108,-3.8059,-3.8039,-3.798,-3.7935,-3.7914,-3.7903,-3.788,-3.7918,-3.7897,-3.7943,-3.7961,-3.7976,-3.7982,-3.7998,-3.8016,-3.7817,-3.7817,-3.7817,0,0,-3.8424,-3.8366,-3.8367,-3.8314,-3.8273,-3.8267,-3.8165,-3.8162,-3.8156,-3.8039,-3.8042,-3.7998,-3.7941,-3.7964,-3.7971,-3.7931,-3.8033,-3.7986,-3.7998,-3.7996,-3.8008,-3.8027,-3.8044,-3.7822,-3.7821,-3.782,0,0,-3.855,-3.8507,-3.8528,-3.849,-3.843,-3.8372,-3.8378,-3.8299,-3.8265,-3.8268,-3.8179,-3.8171,-3.8139,-3.8101,-3.8078,-3.8194,-3.8125,-3.8189,-3.8278,-3.8295,-3.8311,-3.8324,-3.8363,-3.8378,-3.8196,-3.8197,-3.8197,0,-3.8645,-3.8632,-3.8547,-3.855,-3.8529,-3.8424,-3.8444,-3.8412,-3.8348,-3.8335,-3.8292,-3.8249,-3.8204,-3.8216,-3.8244,-3.823,-3.8232,-3.8195,-3.8316,-3.8328,-3.8339,-3.8375,-3.839,-3.8204,-3.8203,-3.8203,-3.8202,0,-3.8752,-3.8745,-3.877,-3.8711,-3.8693,-3.8705,-3.8621,-3.8613,-3.8557,-3.8503,-3.8507,-3.8449,-3.8412,-3.8411,-3.8356,-3.8416,-3.8392,-3.8335,-3.8256,-3.8368,-3.84,-3.8413,-3.8216,-3.8213,-3.821,-3.8209,0,0,-3.8961,-3.8857,-3.8867,-3.8839,-3.8767,-3.8759,-3.8767,-3.8731,-3.8726,-3.8687,-3.8689,-3.8666,-3.8612,-3.8586,-3.8526,-3.8541,-3.8634,-3.848,-3.8477,-3.8508,-3.8695,-3.8737,-3.8754,-3.859,-3.8593,-3.8594,-3.8699,0,-3.9071,-3.9078,-3.9002,-3.9029,-3.9021,-3.8923,-3.893,-3.8887,-3.8838,-3.8823,-3.8769,-3.8753,-3.8684,-3.8667,-3.8679,-3.862,-3.8669,-3.8612,-3.859,-3.859,-3.8603,-3.8771,-3.8815,-3.8915,-3.8711,-3.8713,-3.8714,0,-3.9199,-3.9168,-3.9195,-3.9122,-3.9115,-3.9123,-3.9084,-3.9072,-3.9021,-3.8984,-3.8957,-3.8889,-3.8891,-3.882,-3.8821,-3.8784,-3.8771,-3.8742,-3.8743,-3.8735,-3.8656,-3.8764,-3.8946,-3.896,-3.8734,-3.8732,-3.8731,0,-3.9346,-3.931,-3.9321,-3.9301,-3.9217,-3.9224,-3.919,-3.9135,-3.9119,-3.9086,-3.9074,-3.9042,-3.9023,-3.9,-3.8925,-3.888,-3.8934,-3.8857,-3.8901,-3.8903,-3.8913,-3.8913,-3.9093,-3.8912,-3.8912,-3.8912,-3.8911,0,-3.9474,-3.9494,-3.9386,-3.9392,-3.9411,-3.9325,-3.9346,-3.9302,-3.9255,-3.9251,-3.9166,-3.9164,-3.9066,-3.9053,-3.8995,-3.9004,-3.8997,-3.8966,-3.895,-3.8972,-3.8975,-3.8959,-3.8948,-3.8915,-3.8915,-3.8914,-3.8913,0,-3.9639,-3.9568,-3.9573,-3.9494,-3.9475,-3.9492,-3.9424,-3.9427,-3.9374,-3.937,-3.9364,-3.9281,-3.9261,-3.9185,-3.9147,-3.9108,-3.9134,-3.9105,-3.9151,-3.914,-3.9188,-3.9184,-3.936,-3.9378,-3.919,-3.9192,-3.9194,0,-3.9724,-3.9737,-3.966,-3.9651,-3.9621,-3.9608,-3.9591,-3.9508,-3.9494,-3.9438,-3.9447,-3.9422,-3.9395,-3.9369,-3.9304,-3.9275,-3.9242,-3.9306,-3.9236,-3.9258,-3.9239,-3.9238,-3.9238,-3.932,-3.9322,-3.9324,-3.9326,0,-3.9881,-3.9846,-3.9825,-3.9793,-3.9775,-3.9746,-3.9711,-3.9709,-3.9616,-3.9605,-3.9584,-3.9565,-3.9527,-3.9501,-3.9462,-3.9425,-3.936,-3.9349,-3.9357,-3.9378,-3.9403,-3.9387,-3.9188,-3.9344,-3.9343,-3.9341,-3.934,-3.9339,-4.0006,-4.0012,-3.996,-3.994,-3.9905,-3.9875,-3.9873,-3.9822,-3.9803,-3.9765,-3.9718,-3.9703,-3.9653,-3.9593,-3.9562,-3.9549,-3.9513,-3.9526,-3.9528,-3.9531,-3.9541,-3.9409,-3.9542,-3.9541,-3.9541,-3.954,-3.954,0,-4.0156,-4.0118,-4.0101,-4.0055,-4.004,-3.9983,-3.9942,-3.9932,-3.992,-3.9879,-3.9857,-3.9833,-3.9809,-3.9744,-3.9713,-3.9715,-3.9684,-3.9709,-3.9706,-3.9698,-3.9577,-3.9571,-3.9734,-3.9734,-3.9734,-3.9734,-3.9734,-3.9734,-4.0232,-4.024,-4.0199,-4.0189,-4.015,-4.0135,-4.0117,-4.0089,-4.0055,-4.0033,-4.0013,-3.9971,-3.992,-3.9885,-3.986,-3.9842,-3.9833,-3.9868,-3.9839,-3.9726,-3.9707,-3.9689,-3.9683,-3.9867,-3.9867,-3.9961,-3.9962,-3.9963]},{"header":{"parameterUnit":"m.s-1","parameterCategory":1,"la1":30.2991,"la2":30.254,"lo1":-89.0895,"lo2":-89.0444,"dy":0.0017,"dx":0.0017,"nx":28,"ny":28,"refTime":"2024-02-08T09:00:00:Z","depth":0,"parameterNumber":3,"parameterNumberName":"V-component_of_WINDS"},"data":[0,0,0,0,0,0,0,0,0,0,0,0,0,0,0,0,0,0,0,0,0,0,0,0,0,0,0,0,0,0,0,0,0,0,0,0,0,0,0,0,0,0,0,0,0,0,0,0,0,0,0,0,0,0,0,0,0,0,0.9994,0.9994,0,1.0002,1.0002,1.0002,0.9953,0.9952,0.995,0.9949,0.9958,0.996,0.9962,0,0,0,0,0,0,0,0,0,0,0,0,0,0.9941,0.9942,0.9994,0.9994,0.9994,1.0002,1.0002,1.0002,0.9953,0.9952,0.995,0.9948,0.9958,0.996,0.9962,0,0,0,0,0,0,0,0,0,0,0,0,0,0.9958,0.9942,0.9994,0.9971,0.9969,1.0002,1.0002,1.0002,0.9954,0.9951,0.9949,0.9947,0.9957,0.996,0.9962,1.0018,0,0,0.9969,0.997,0,0,0,0,0,0,0,0,0.9957,0.996,0.9974,0.9972,0.997,0.9974,0.9987,1.0008,0.9954,0.9959,0.9949,0.9946,0.9966,0.9967,0.9973,1.0019,1.0019,0.9969,0.9971,0.9972,0.9972,0,0,0,0,0,0,0,0.9956,0.9959,0.9997,0.9974,0.9972,0.9961,0.9961,0.999,0.9974,0.9959,0.9955,0.9957,0.9964,0.9971,0.9973,1.0019,0.9969,0.9971,0.9973,0.9974,1.0116,1.0118,0,0,0,0,0,0,0.9957,0.9958,0.9997,0.9997,0.9958,0.9964,0.9964,0.9975,0.9974,0.9971,0.9958,0.9954,0.9968,0.997,0.9973,1.0042,0.9972,0.9974,0.9975,1.0113,1.0116,1.0119,0,0,0,0,0,0,0.9956,0.9961,0.9996,0.9977,0.9981,0.9967,0.998,0.9976,0.9983,0.9973,0.9971,0.9968,0.9967,0.997,1.0008,1.0041,0.9975,0.9977,1.0111,1.0114,1.0118,1.0177,0,0,0,0,0,0,0.9955,0.9961,0.9981,0.9978,0.9982,1.003,0.9982,0.9978,0.9987,0.9982,0.9982,0.998,0.9965,1.0005,1.0011,1.0043,0.9979,1.0108,1.0112,1.0117,1.0172,1.0182,1.0191,0,0,0,0,0,0.9953,0.9997,0.9982,0.9987,1.0006,1.0032,1.0035,1.0016,0.999,1.0011,1.0006,0.998,1.0037,1.0009,1.0015,1.0049,1.0105,1.0111,1.0116,1.0168,1.018,1.0191,0,0,0,0,0,0,1.0003,0.9996,0.9979,1.0023,1.0029,1.0024,1.0049,1.0029,1.0043,1.0037,1.0014,1.0015,1.0058,1.0057,1.0027,1.0106,1.0067,1.0074,1.0104,1.0116,1.0125,1.0125,0.9981,0,0,0,0,0,1.002,1.004,1.0033,1.0072,1.0076,1.0063,1.0073,1.0059,1.0064,1.0066,1.0063,1.007,1.0089,1.0102,1.012,1.0172,1.0173,1.0199,1.0208,1.0216,1.0222,1.0254,1.0266,1.0137,1.0136,1.0136,0,0,1.0053,1.0052,1.0066,1.0083,1.0085,1.0109,1.0065,1.009,1.0108,1.007,1.0106,1.0105,1.0111,1.0158,1.0178,1.0159,1.0258,1.0223,1.0229,1.0231,1.026,1.0273,1.0283,1.014,1.0139,1.0139,0,0,1.0127,1.0127,1.0161,1.0166,1.0171,1.0162,1.0171,1.017,1.0167,1.0204,1.0177,1.0198,1.0232,1.0238,1.0246,1.0327,1.0305,1.0333,1.0382,1.0413,1.0423,1.0432,1.0464,1.0475,1.034,1.034,1.034,0,1.0168,1.0201,1.0181,1.021,1.022,1.0187,1.0223,1.0228,1.0239,1.0247,1.0225,1.0269,1.0271,1.032,1.0341,1.0347,1.0358,1.0333,1.0423,1.0432,1.044,1.047,1.0481,1.0343,1.0343,1.0343,1.0342,0,1.0253,1.0277,1.0305,1.0317,1.0329,1.0362,1.0349,1.0364,1.035,1.0345,1.0384,1.0386,1.0404,1.0415,1.0401,1.0464,1.0452,1.0427,1.0388,1.0457,1.0484,1.0495,1.0348,1.0347,1.0346,1.0345,0,0,1.0356,1.0359,1.037,1.0377,1.0382,1.0401,1.0433,1.0452,1.0467,1.0477,1.0505,1.0536,1.0514,1.0523,1.051,1.0537,1.0605,1.0509,1.0509,1.0529,1.0678,1.0697,1.071,1.0591,1.0593,1.0594,1.0678,0,1.0429,1.0484,1.0469,1.0524,1.0548,1.052,1.0549,1.0556,1.0553,1.0574,1.0571,1.0594,1.0562,1.0568,1.0594,1.0591,1.0635,1.0585,1.0618,1.062,1.0618,1.0724,1.0744,1.0823,1.0688,1.069,1.0691,0,1.0521,1.0536,1.0594,1.0599,1.0608,1.0634,1.0652,1.0672,1.0681,1.0678,1.069,1.0672,1.0707,1.0668,1.0717,1.0684,1.0697,1.0698,1.0701,1.0704,1.066,1.0732,1.0847,1.0859,1.0708,1.0706,1.0705,0,1.0593,1.0627,1.0667,1.0674,1.068,1.0699,1.0703,1.071,1.0724,1.074,1.0749,1.0769,1.0781,1.0798,1.0787,1.0759,1.0839,1.0798,1.0839,1.0839,1.0856,1.0856,1.0977,1.0864,1.0863,1.0863,1.0863,0,1.0677,1.0714,1.07,1.0725,1.0767,1.0751,1.0793,1.0794,1.0801,1.0827,1.0804,1.0829,1.0813,1.0838,1.083,1.0874,1.0879,1.0878,1.0876,1.0881,1.0881,1.0889,1.0884,1.0866,1.0866,1.0865,1.0864,0,1.0764,1.0755,1.0798,1.0801,1.0803,1.0834,1.0838,1.0862,1.0859,1.0892,1.0899,1.0894,1.0922,1.0914,1.0944,1.0939,1.0995,1.0985,1.0992,1.099,1.1031,1.1028,1.1163,1.1181,1.1055,1.1056,1.1057,0,1.0818,1.0846,1.0854,1.087,1.0875,1.0901,1.0915,1.0902,1.0918,1.0933,1.0956,1.0983,1.1003,1.105,1.105,1.1074,1.1065,1.1111,1.1068,1.1074,1.1068,1.1067,1.1071,1.1119,1.1121,1.1122,1.1123,0,1.0916,1.0912,1.0933,1.0954,1.0972,1.0988,1.1002,1.1017,1.1005,1.1025,1.1054,1.107,1.1102,1.113,1.1152,1.1158,1.114,1.1137,1.1147,1.1153,1.1157,1.1158,1.1016,1.1133,1.1132,1.1131,1.1131,1.113,1.0989,1.1015,1.1025,1.1051,1.106,1.1075,1.1099,1.1099,1.1123,1.1148,1.1139,1.1174,1.1186,1.1215,1.1224,1.1251,1.1234,1.1249,1.1254,1.1258,1.1264,1.1152,1.1255,1.1255,1.1255,1.1254,1.1254,0,1.1088,1.1094,1.1118,1.1139,1.1161,1.1142,1.1157,1.1177,1.1207,1.122,1.1242,1.1277,1.1305,1.1308,1.1334,1.1356,1.1349,1.1364,1.1363,1.1365,1.1277,1.1266,1.137,1.137,1.137,1.137,1.137,1.137,1.1142,1.1185,1.1182,1.1231,1.1237,1.127,1.1281,1.1296,1.1306,1.1347,1.137,1.1372,1.1383,1.141,1.1436,1.1436,1.1448,1.1467,1.1464,1.1382,1.1371,1.136,1.1349,1.1469,1.1469,1.155,1.1551,1.1552]}]]